Regional Weather Roundup
Issued by NWS

Home | Current Version | Previous Version | Graphics & Text | Print | Product List | Glossary On
Versions: 1 2 3 4 5 6 7 8 9 10 11 12 13 14 15 16 17 18 19 20 21 22 23 24 25 26 27 28 29 30 31 32 33 34 35 36 37 38 39 40 41 42 43 44 45 46 47 48 49 50
000
ASUS43 KIND 280759
RWRIN

WEATHER ROUNDUP FOR INDIANA
NATIONAL WEATHER SERVICE INDIANAPOLIS IN
400 AM EDT THU MAY 28 2015

NOTE: "FAIR" INDICATES FEW OR NO CLOUDS BELOW 12,000 FEET WITH NO
SIGNIFICANT WEATHER AND/OR OBSTRUCTIONS TO VISIBILITY.

* - STATION DOES NOT REPORT WEATHER SUCH AS PRECIPITATION OR FOG.

+ - STATION NOT QUALITY CONTROLLED BY THE NATIONAL WEATHER SERVICE.
    USE DATA WITH CAUTION...ESPECIALLY DEWPOINT AND RELATIVE
    HUMIDITY OBSERVATIONS.

INZ001>003-010>013-019-020-280900-
NORTHWEST INDIANA

CITY           SKY/WX    TMP DP  RH WIND       PRES   REMARKS
RENSSELAER +   CLEAR     55  55 100 NE5       30.17F

$$

LMZ046-743>745-280900-
SOUTHERN LAKE MICHIGAN

STATION/POSITION TIME  TEMP    WIND        PRES    WAVE
                       AIR SEA DIR/SP/G            HT
                 (UTC) (F)     (DEG/KT/KT) (MB)    (FT)
BURNS HARBOR     0700   60     160/  5/  6 1022.4R
MICHIGAN CITY    0700   62     130/  7/  8   N/A
5NW MICH CITY    0700   56 53  210/  4/  4   N/A     0

$$

INZ004-005-014>016-021>024-280900-
NORTH CENTRAL INDIANA

CITY           SKY/WX    TMP DP  RH WIND       PRES   REMARKS
GOSHEN         CLEAR     51  50  96 SE3       30.19R FOG
SOUTH BEND     CLEAR     54  51  90 CALM      30.19R
WARSAW +       CLEAR     54  54 100 CALM      30.19R FOG

$$

INZ006>009-017-018-025>027-280900-
NORTHEAST INDIANA

CITY           SKY/WX    TMP DP  RH WIND       PRES   REMARKS
ANGOLA *+      CLEAR     52  52 100 CALM      30.18R
FORT WAYNE     PTCLDY    58  56  93 NW5       30.18S

$$

INZ028-029-035-036-043>045-051>053-280900-
WEST CENTRAL INDIANA

CITY           SKY/WX    TMP DP  RH WIND       PRES   REMARKS
CRAWFORDSVL +  CLEAR     56  52  85 N3        30.17S
GREENCASTLE +  CLEAR     61  54  77 N5        30.17F
LAFAYETTE      CLEAR     54  53  97 CALM      30.17S
TERRE HAUTE    CLEAR     60  56  86 E3        30.16S

$$

INZ030>032-037>040-046>048-054>057-064-065-280900-
CENTRAL INDIANA

CITY           SKY/WX    TMP DP  RH WIND       PRES   REMARKS
GREENWOOD *+   PTCLDY    64  57  77 NE5       30.17S
INDIANAPOLIS   PTCLDY    63  57  81 N3        30.15S
-EAGLE CREEK   CLEAR     60  58  92 N3        30.16S
KOKOMO *+      CLEAR     55  54  94 CALM      30.18R
SHELBYVILLE    PTCLDY    68  64  87 CALM      30.15F

$$

INZ033-034-041-042-049-050-058-059-280900-
EAST CENTRAL INDIANA

CITY           SKY/WX    TMP DP  RH WIND       PRES   REMARKS
MUNCIE         PTCLDY    61  58  90 CALM      30.17R

$$

INZ060-061-067>069-081>083-085>088-280900-
SOUTHWEST INDIANA

CITY           SKY/WX    TMP DP  RH WIND       PRES   REMARKS
EVANSVILLE     MOCLDY    66  63  90 CALM      30.15F FOG
HUNTINGBURG *+ MOCLDY    64  61  88 CALM      30.16S

$$

INZ062-063-066-070>080-084-089>092-280900-
SOUTH CENTRAL AND SOUTHEAST INDIANA

CITY           SKY/WX    TMP DP  RH WIND       PRES   REMARKS
BLOOMINGTON    PTCLDY    63  61  93 CALM      30.16R
SEYMOUR +      FOG       63  61  94 CALM      30.15F VSB 1

$$




USA.gov is the U.S. government's official web portal to all federal, state and local government web resources and services.